TimeCST,TemperatureF,Dew PointF,Humidity,Sea Level PressureIn,VisibilityMPH,Wind Direction,Wind SpeedMPH,Gust SpeedMPH,PrecipitationIn,Events,Conditions,WindDirDegrees,DateUTC
12:52 AM,27.0,16.0,63,30.35,10.0,NE,10.4,18.4,N/A,,Clear,50,2013-01-24 06:52:00
1:52 AM,25.0,15.1,66,30.35,10.0,NE,9.2,20.7,N/A,,Clear,40,2013-01-24 07:52:00
2:52 AM,24.1,15.1,69,30.35,10.0,NE,12.7,19.6,N/A,,Clear,40,2013-01-24 08:52:00
3:52 AM,23.0,12.9,65,30.35,10.0,NE,8.1,-,N/A,,Clear,40,2013-01-24 09:52:00
4:52 AM,21.0,10.9,65,30.35,10.0,NE,10.4,21.9,N/A,,Clear,50,2013-01-24 10:52:00
5:52 AM,19.0,10.9,71,30.36,10.0,ENE,8.1,17.3,N/A,,Clear,60,2013-01-24 11:52:00
6:52 AM,18.0,10.0,71,30.38,10.0,NE,6.9,-,N/A,,Clear,50,2013-01-24 12:52:00
7:52 AM,17.1,9.0,71,30.38,10.0,NE,8.1,-,N/A,,Clear,50,2013-01-24 13:52:00
8:52 AM,18.0,9.0,68,30.39,10.0,NE,10.4,-,N/A,,Overcast,40,2013-01-24 14:52:00
9:52 AM,19.0,8.1,62,30.40,10.0,ENE,11.5,-,N/A,,Overcast,60,2013-01-24 15:52:00
10:52 AM,21.0,7.0,55,30.43,10.0,NNE,8.1,-,N/A,,Overcast,30,2013-01-24 16:52:00
11:52 AM,21.9,7.0,53,30.37,10.0,ENE,11.5,-,N/A,,Overcast,70,2013-01-24 17:52:00
12:52 PM,23.0,6.1,48,30.30,10.0,East,8.1,-,N/A,,Overcast,80,2013-01-24 18:52:00
1:52 PM,25.0,6.1,45,30.30,10.0,ENE,3.5,-,N/A,,Overcast,60,2013-01-24 19:52:00
2:39 PM,26.6,6.8,43,30.21,10.0,ENE,5.8,-,N/A,,Overcast,70,2013-01-24 20:39:00
2:52 PM,27.0,7.0,43,30.24,10.0,East,4.6,-,N/A,,Overcast,80,2013-01-24 20:52:00
3:52 PM,28.0,7.0,41,30.21,10.0,SSE,6.9,-,N/A,,Overcast,150,2013-01-24 21:52:00
4:52 PM,28.0,7.0,41,30.18,10.0,ESE,3.5,-,N/A,,Overcast,110,2013-01-24 22:52:00
5:52 PM,28.9,10.0,45,30.18,10.0,SE,8.1,-,N/A,,Overcast,140,2013-01-24 23:52:00
6:52 PM,28.0,14.0,56,30.19,10.0,SSE,10.4,-,N/A,,Overcast,160,2013-01-25 00:52:00
7:52 PM,27.0,17.1,66,30.21,10.0,SE,4.6,-,N/A,,Overcast,140,2013-01-25 01:52:00
8:52 PM,27.0,17.1,66,30.19,10.0,South,3.5,-,N/A,,Overcast,170,2013-01-25 02:52:00
9:52 PM,28.0,17.1,63,30.18,10.0,SSW,9.2,-,N/A,,Overcast,200,2013-01-25 03:52:00
10:52 PM,28.0,17.1,63,30.20,10.0,West,5.8,-,N/A,,Overcast,270,2013-01-25 04:52:00
11:52 PM,28.0,12.9,53,30.18,10.0,WNW,6.9,-,N/A,,Overcast,290,2013-01-25 05:52:00